Tiempo atmosférico en la estación meteorológica de Las Palmas de Gran Canaria, San Cristobal, Las Palmas (55 m.)



Fecha
DESCASC
Temp. máxima en grados centígrados (hora)
DESCASC
Temp. mínima en grados centígrados (hora)
DESCASC
Temp. media en grados centígrados
DESCASC
Racha de viento máxima en m/sg (hora)
DESCASC
Velocidad máxima media en intervalos de 10 minutos(hora)
DESCASC
Precipitaciones diarias en mm
DESCASC
Precipitaciones de 00:00 a 06:00 en mm
DESCASC
Precipitaciones de 06:00 a 12:00 en mm
DESCASC
Precipitaciones de 12:00 a 18:00 en mm
DESCASC
Precipitaciones de 18:00 a 24:00 en mm
DESCASC
16-06-2019 24.1 (17:10) 17.8 (06:20) 20.9 6.39 (12:00) 3.89 (12:20) 0 0 0 0 0
15-06-2019 24 (09:50) 18.1 (04:50) 21.1 7.78 (07:30) 5 (07:50) 0 0 0 0 0
14-06-2019 23 (16:50) 17.9 (07:00) 20.4 6.67 (19:10) 3.89 (14:20) 0 0 0 0 0
13-06-2019 22.9 (15:00) 18 (00:00) 20.4 11.94 (15:30) 7.22 (14:50) 0 0 0 0 0
12-06-2019 24.3 (15:50) 17.5 (00:00) 20.9 13.33 (00:20) 7.78 (17:00) 1.2 0.4 0.8 0 0
11-06-2019 22 (14:30) 18.5 (00:00) 20.3 12.78 (18:20) 8.33 (19:00) 0.1 0 0 0.1 0
10-06-2019 22.7 (15:50) 18.8 (00:00) 20.8 21.11 (13:40) 8.33 (15:30) 0 0 0 0 0
09-06-2019 23.1 (16:50) 18.2 (00:00) 20.7 13.89 (20:20) 6.67 (19:00) 0 0 0 0 0
08-06-2019 22.8 (16:30) 19.1 (00:00) 20.9 11.39 (16:30) 6.67 (18:00) 0 0 0 0 0
07-06-2019 24.1 (12:20) 18.7 (00:00) 21.4 10 (02:00) 6.39 (05:50) 0 0 0 0 0
06-06-2019 22.5 (11:40) 18.4 (00:00) 20.4 10.83 (19:20) 6.39 (20:20) 0 0 0 0 0
05-06-2019 23.9 (13:10) 19.6 (00:00) 21.8 14.72 (16:30) 7.5 (17:50) 0 0 0 0 0
04-06-2019 24.5 (09:50) 19.3 (00:00) 21.9 12.5 (19:10) 8.33 (19:10) 0 0 0 0 0
03-06-2019 24.8 (08:30) 20.4 (00:00) 22.6 13.06 (20:40) 8.89 (22:00) 0 0 0 0 0
02-06-2019 24.2 (18:20) 18.6 (00:00) 21.4 14.17 (20:50) 8.61 (10:10) 0 0 0 0 0
01-06-2019 22.8 (15:00) 18.7 (00:00) 20.8 13.89 (16:50) 8.06 (18:30) 0 0 0 0 0
31-05-2019 22.4 (17:10) 18.5 (00:00) 20.4 15.83 (18:10) 10.83 (18:10) 0 0 0 0 0
30-05-2019 22.2 (13:50) 18.2 (00:00) 20.2 17.22 (16:10) 9.72 (19:50) 0 0 0 0 0
29-05-2019 22.1 (14:20) 18.1 (00:00) 20.1 14.72 (19:50) 9.17 (19:00) 0 0 0 0 0
28-05-2019 23.1 (15:50) 19 (00:00) 21.1 11.94 (14:50) 6.67 (09:20) 0 0 0 0 0
27-05-2019 23.2 (16:40) 18.5 (00:00) 20.9 14.17 (12:20) 8.89 (14:40) 0 0 0 0 0
26-05-2019 22.8 (18:10) 18.6 (00:00) 20.7 12.22 (21:00) 9.17 (17:40) 0 0 0 0 0
25-05-2019 22.5 (16:10) 17.6 (00:00) 20.1 12.22 (23:10) 7.5 (21:50) 0 0 0 0 0
24-05-2019 22.4 (15:30) 18.4 (00:00) 20.4 13.06 (17:50) 8.61 (00:20) 0 0 0 0 0
23-05-2019 23 (13:50) 18.1 (00:00) 20.6 13.89 (17:20) 8.61 (17:10) 0 0 0 0 0
22-05-2019 22 (14:10) 18.7 (00:00) 20.4 21.39 (16:30) 8.33 (14:40) 0 0 0 0 0

Gráficas

Temp. máximas Temp. mínimas Temp. medias Precipitaciones Rachas de viento máximas Velocidades máximas media en intervalos de 10 minutos

Datos horarios

Fecha y hora oficial Temperatura (ºC) Velocidad del viento (km/h) Dirección del viento Racha (km/h) Dirección de racha Precipitación (mm) Presión (hPa) Tendencia (hPa) Humedad (%)
2019-06-20 23:00:00 21.1 18 Noroeste 35 Noroeste 0 -- -- 72
2019-06-20 22:00:00 22.6 16 Noroeste 36 Noroeste 0 -- -- 71
2019-06-20 21:00:00 21.5 21 Noroeste 40 Noroeste 0 -- -- 73
2019-06-20 20:00:00 21.6 22 Noroeste 42 Oeste 0 -- -- 74
2019-06-20 19:00:00 21.7 25 Noroeste 45 Noroeste 0 -- -- 74
2019-06-20 18:00:00 21.8 24 Noroeste 44 Noroeste 0 -- -- 73
2019-06-20 17:00:00 22.7 21 Noroeste 44 Noroeste 0 -- -- 70
2019-06-20 16:00:00 23.1 20 Noroeste 39 Noroeste 0 -- -- 68
2019-06-20 15:00:00 22.3 22 Noroeste 37 Noroeste 0 -- -- 67
2019-06-20 14:00:00 23.1 18 Noroeste 34 Noroeste 0 -- -- 66
2019-06-20 13:00:00 23.7 16 Noroeste 31 Noroeste 0 -- -- 64
2019-06-20 12:00:00 21.9 22 Noroeste 34 Norte 0 -- -- 69
2019-06-20 11:00:00 23.3 17 Noroeste 32 Noroeste 0 -- -- 73
2019-06-20 10:00:00 21.5 17 Noroeste 33 Noroeste 0 -- -- 73
2019-06-20 09:00:00 21.4 18 Noroeste 30 Noroeste 0 -- -- 75
2019-06-20 08:00:00 21.2 18 Noroeste 30 Noroeste 0 -- -- 78
2019-06-20 07:00:00 20.7 16 Noroeste 27 Noroeste 0 -- -- 78
2019-06-20 06:00:00 20.7 18 Noroeste 30 Noroeste 0 -- -- 78
2019-06-20 05:00:00 20.6 18 Noroeste 38 Noroeste 0 -- -- 77
2019-06-20 04:00:00 20.9 18 Noroeste 36 Noroeste 0 -- -- 77
2019-06-20 03:00:00 20.8 13 Noroeste 33 Noroeste 0 -- -- 78
2019-06-20 02:00:00 21.1 21 Noroeste 31 Noroeste 0 -- -- 75
2019-06-20 01:00:00 21.1 21 Noroeste 33 Norte 0 -- -- 75
2019-06-20 00:00:00 21.3 20 Noroeste 31 Noroeste 0 -- -- 77
2019-06-19 23:00:00 21.4 18 Noroeste 33 Noroeste 0 -- -- 75
2019-06-19 22:00:00 21.6 16 Noroeste 35 Noroeste 0 -- -- 74
2019-06-19 21:00:00 21.9 16 Noroeste 35 Noroeste 0 -- -- 73
2019-06-19 20:00:00 22.1 19 Noroeste 37 Noroeste 0 -- -- 70
2019-06-19 19:00:00 22.4 18 Noroeste 38 Noroeste 0 -- -- 67
2019-06-19 18:00:00 22.5 19 Noroeste 36 Noroeste 0 -- -- 67
2019-06-19 17:00:00 23 22 Noroeste 36 Noroeste 0 -- -- 66
2019-06-19 16:00:00 22.8 20 Noroeste 36 Noroeste 0 -- -- 66
2019-06-19 15:00:00 23.3 21 Norte 37 Noroeste 0 -- -- 64
2019-06-19 14:00:00 22.7 20 Noroeste 32 Norte 0 -- -- 66
2019-06-19 13:00:00 24.1 17 Norte 27 Norte 0 -- -- 61
2019-06-19 12:00:00 22.5 17 Norte 28 Noroeste 0 -- -- 65
2019-06-19 11:00:00 22.4 13 Noroeste 23 Noroeste 0 -- -- 67
2019-06-19 10:00:00 22.3 13 Norte 22 Norte 0 -- -- 68
2019-06-19 09:00:00 23.5 13 Norte 23 Noroeste 0 -- -- 75
2019-06-19 08:00:00 21.3 14 Norte 19 Norte 0 -- -- 79
2019-06-19 07:00:00 20.9 11 Noroeste 20 Noroeste 0 -- -- 81
2019-06-19 06:00:00 20.9 12 Noroeste 23 Noroeste 0 -- -- 81
2019-06-19 05:00:00 21.3 6 Norte 16 Norte 0 -- -- 81
2019-06-19 04:00:00 21.1 8 Noroeste 15 Noroeste 0 -- -- 81
2019-06-19 03:00:00 21.5 11 Noroeste 16 Noroeste 0 -- -- 79
2019-06-19 02:00:00 21.7 9 Noroeste 17 Noroeste 0 -- -- 77
2019-06-19 01:00:00 21.8 8 Noroeste 21 Noroeste 0 -- -- 74
2019-06-19 00:00:00 22.1 12 Noroeste 19 Noroeste 0 -- -- 77
2019-06-18 23:00:00 22.1 15 Noroeste 28 Noroeste 0 -- -- 78
2019-06-18 22:00:00 22.2 15 Noroeste 24 Noroeste 0 -- -- 78
2019-06-18 21:00:00 22.2 17 Noroeste 25 Noroeste 0 -- -- 77
2019-06-18 20:00:00 22.7 11 Noroeste 19 Noroeste 0 -- -- 72
2019-06-18 19:00:00 24.4 6 Nordeste 11 Este 0 -- -- 73
2019-06-18 18:00:00 23.7 3 Este 7 Sudeste 0 -- -- 69
2019-06-18 17:00:00 24.3 4 Sudeste 14 Sudeste 0 -- -- 68
2019-06-18 16:00:00 25.9 10 Sudeste 16 Nordeste 0 -- -- 67
2019-06-18 15:00:00 25.2 11 Nordeste 18 Nordeste 0 -- -- 66
2019-06-18 14:00:00 25.8 4 Norte 20 Nordeste 0 -- -- 62
2019-06-18 13:00:00 24.2 14 Nordeste 23 Nordeste 0 -- -- 67
2019-06-18 12:00:00 25.9 12 Nordeste 23 Nordeste 0 -- -- 64
2019-06-18 11:00:00 24.7 9 Nordeste 19 Este 0 -- -- 64
2019-06-18 10:00:00 22.6 10 Norte 18 Noroeste 0 -- -- 67
2019-06-18 09:00:00 22.3 6 Norte 11 Norte 0 -- -- 68
2019-06-18 08:00:00 21.7 6 Noroeste 10 Noroeste 0 -- -- 68
2019-06-18 07:00:00 19.9 3 Oeste 7 Noroeste 0 -- -- 70
2019-06-18 06:00:00 19.9 0 Calma 3 Noroeste 0 -- -- 72
2019-06-18 05:00:00 20.2 2 Sur 7 Sur 0 -- -- 74
2019-06-18 04:00:00 20.3 3 Sudoeste 8 Oeste 0 -- -- 73
2019-06-18 03:00:00 20.3 6 Oeste 9 Oeste 0 -- -- 71
2019-06-18 02:00:00 20.1 3 Oeste 5 Oeste 0 -- -- 77
2019-06-18 01:00:00 20.6 2 Sudeste 7 Sudeste 0 -- -- 77
2019-06-18 00:00:00 20.9 5 Sudeste 8 Sudeste 0 -- -- 75
2019-06-17 23:00:00 21.3 0 Calma 6 Sudeste 0 -- -- 72
2019-06-17 22:00:00 21.5 3 Sudeste 9 Sur 0 -- -- 69
2019-06-17 21:00:00 21.4 7 Sur 11 Sur 0 -- -- 67
2019-06-17 20:00:00 24.8 4 Sudeste 10 Este 0 -- -- 57
2019-06-17 19:00:00 26.3 4 Sudeste 9 Este 0 -- -- 55
2019-06-17 18:00:00 25.8 4 Este 12 Este 0 -- -- 56
2019-06-17 17:00:00 24.4 6 Este 11 Este 0 -- -- 60
2019-06-17 16:00:00 25.2 5 Sudeste 13 Este 0 -- -- 57
2019-06-17 15:00:00 24.5 8 Este 13 Este 0 -- -- 60
2019-06-17 14:00:00 22 10 Este 20 Nordeste 0 -- -- 64
2019-06-17 13:00:00 22.1 14 Nordeste 21 Nordeste 0 -- -- 64
2019-06-17 12:00:00 22.6 8 Nordeste 15 Nordeste 0 -- -- 67
2019-06-17 11:00:00 23.1 8 Nordeste 16 Nordeste 0 -- -- 66
2019-06-17 10:00:00 21 10 Nordeste 14 Nordeste 0 -- -- 67
2019-06-17 09:00:00 22.4 5 Noroeste 12 Oeste 0 -- -- 66
2019-06-17 08:00:00 19 9 Oeste 15 Oeste 0 -- -- 72
2019-06-17 07:00:00 18.1 10 Oeste 13 Oeste 0 -- -- 73
2019-06-17 06:00:00 18.5 8 Oeste 11 Oeste 0 -- -- 74
2019-06-17 05:00:00 18.4 8 Oeste 15 Noroeste 0 -- -- 73
2019-06-17 04:00:00 18.7 10 Oeste 15 Noroeste 0 -- -- 70
2019-06-17 03:00:00 18.7 10 Oeste 18 Noroeste 0 -- -- 69
2019-06-17 02:00:00 18.6 10 Oeste 14 Oeste 0 -- -- 68
2019-06-17 01:00:00 18.9 8 Oeste 14 Noroeste 0 -- -- 68
2019-06-17 00:00:00 19.5 9 Noroeste 13 Noroeste 0 -- -- 67
2019-06-16 23:00:00 19.7 5 Noroeste 13 Norte 0 -- -- 67
2019-06-16 22:00:00 19.8 7 Norte 15 Nordeste 0 -- -- 67
2019-06-16 21:00:00 20 10 Norte 17 Nordeste 0 -- -- 67
2019-06-16 20:00:00 21.2 6 Norte 20 Norte 0 -- -- 62
2019-06-16 19:00:00 21.3 9 Nordeste 22 Nordeste 0 -- -- 64
2019-06-16 18:00:00 21.8 9 Nordeste 22 Nordeste 0 -- -- 62
2019-06-16 17:00:00 22.2 12 Nordeste 20 Nordeste 0 -- -- 62
2019-06-16 16:00:00 22.4 11 Nordeste 20 Norte 0 -- -- 62
2019-06-16 15:00:00 21.6 10 Nordeste 22 Nordeste 0 -- -- 62
2019-06-16 14:00:00 21.3 13 Nordeste 21 Nordeste 0 -- -- 62
2019-06-16 13:00:00 21.5 11 Nordeste 22 Nordeste 0 -- -- 62
2019-06-16 12:00:00 22.4 11 Nordeste 23 Nordeste 0 -- -- 62
2019-06-16 11:00:00 21.1 10 Nordeste 21 Nordeste 0 -- -- 64
2019-06-16 10:00:00 20.6 9 Norte 15 Norte 0 -- -- 65
2019-06-16 09:00:00 19.5 7 Oeste 15 Oeste 0 -- -- 67
2019-06-16 08:00:00 18.1 10 Oeste 15 Oeste 0 -- -- 69
2019-06-16 07:00:00 17.8 10 Oeste 16 Oeste 0 -- -- 69
2019-06-16 06:00:00 18 9 Oeste 12 Oeste 0 -- -- 69
2019-06-16 05:00:00 18.2 7 Oeste 11 Oeste 0 -- -- 68
2019-06-16 04:00:00 19 5 Norte 12 Nordeste 0 -- -- 69
2019-06-16 03:00:00 19.2 5 Nordeste 13 Nordeste 0 -- -- 68
2019-06-16 02:00:00 19.5 4 Nordeste 13 Nordeste 0 -- -- 68
2019-06-16 01:00:00 19.4 5 Norte 14 Nordeste 0 -- -- 67
2019-06-16 00:00:00 19.5 6 Norte 17 Norte 0 -- -- 67
2019-06-15 23:00:00 19.6 10 Norte 19 Nordeste 0 -- -- 66
2019-06-15 22:00:00 20.9 11 Norte 19 Norte 0 -- -- 65
2019-06-15 21:00:00 21.3 10 Norte 18 Norte 0 -- -- 65
2019-06-15 20:00:00 20 9 Norte 21 Norte 0 -- -- 64
2019-06-15 19:00:00 20.2 8 Nordeste 19 Nordeste 0 -- -- 66
2019-06-15 18:00:00 21 6 Norte 20 Nordeste 0 -- -- 62
2019-06-15 17:00:00 20.9 10 Nordeste 19 Norte 0 -- -- 61
2019-06-15 16:00:00 21.1 9 Nordeste 19 Nordeste 0 -- -- 61
2019-06-15 15:00:00 21.1 12 Nordeste 20 Nordeste 0 -- -- 59
2019-06-15 14:00:00 21.1 14 Nordeste 21 Nordeste 0 -- -- 62
2019-06-15 13:00:00 21.6 12 Nordeste 26 Nordeste 0 -- -- 62
2019-06-15 12:00:00 21.3 10 Nordeste 23 Nordeste 0 -- -- 62
2019-06-15 11:00:00 19.8 12 Nordeste 21 Nordeste 0 -- -- 61
2019-06-15 10:00:00 20.6 8 Nordeste 17 Nordeste 0 -- -- 56
2019-06-15 09:00:00 20.7 5 Norte 22 Nordeste 0 -- -- 58
2019-06-15 08:00:00 19.8 14 Nordeste 28 Nordeste 0 -- -- 63
2019-06-15 07:00:00 18.9 13 Nordeste 24 Nordeste 0 -- -- 67
2019-06-15 06:00:00 18.8 10 Nordeste 17 Nordeste 0 -- -- 68
2019-06-15 05:00:00 18.5 5 Oeste 14 Oeste 0 -- -- 67
2019-06-15 04:00:00 18.5 5 Oeste 12 Norte 0 -- -- 65
2019-06-15 03:00:00 19 8 Norte 16 Noroeste 0 -- -- 64
2019-06-15 02:00:00 19.1 9 Norte 15 Norte 0 -- -- 64
2019-06-15 01:00:00 19.3 8 Norte 15 Norte 0 -- -- 64
2019-06-15 00:00:00 19.3 7 Norte 12 Norte 0 -- -- 63
2019-06-14 23:00:00 19.6 6 Norte 16 Norte 0 -- -- 64
2019-06-14 22:00:00 19.7 8 Norte 22 Norte 0 -- -- 64
2019-06-14 21:00:00 20 9 Norte 20 Norte 0 -- -- 63
2019-06-14 20:00:00 20.3 12 Norte 24 Norte 0 -- -- 63
2019-06-14 19:00:00 21.4 12 Norte 21 Norte 0 -- -- 61
2019-06-14 18:00:00 21 8 Norte 20 Nordeste 0 -- -- 56
2019-06-14 17:00:00 20.7 10 Nordeste 21 Norte 0 -- -- 58
2019-06-14 16:00:00 21 9 Nordeste 20 Nordeste 0 -- -- 59
2019-06-14 15:00:00 20.2 8 Nordeste 22 Nordeste 0 -- -- 64
2019-06-14 14:00:00 20.6 9 Norte 23 Nordeste 0 -- -- 65
2019-06-14 13:00:00 20.3 12 Norte 21 Nordeste 0 -- -- 65
2019-06-14 12:00:00 20.1 8 Nordeste 17 Nordeste 0 -- -- 65
2019-06-14 11:00:00 20.9 6 Norte 19 Nordeste 0 -- -- 64
2019-06-14 10:00:00 21.2 7 Norte 18 Noroeste 0 -- -- 66
2019-06-14 09:00:00 19.4 5 Oeste 14 Oeste 0 -- -- 65
2019-06-14 08:00:00 19.6 6 Oeste 15 Oeste 0 -- -- 67
2019-06-14 07:00:00 18 10 Oeste 14 Oeste 0 -- -- 68
2019-06-14 06:00:00 18.6 7 Noroeste 14 Noroeste 0 -- -- 67
2019-06-14 05:00:00 18.5 6 Oeste 12 Oeste 0 -- -- 65
2019-06-14 04:00:00 18.4 7 Oeste 12 Noroeste 0 -- -- 67
2019-06-14 03:00:00 18.5 5 Oeste 14 Noroeste 0 -- -- 67
2019-06-14 02:00:00 19 5 Norte 18 Noroeste 0 -- -- 66
2019-06-14 01:00:00 19.1 9 Noroeste 18 Norte 0 -- -- 64
2019-06-14 00:00:00 19.2 12 Norte 19 Noroeste 0 -- -- 65
2019-06-13 23:00:00 19.5 10 Norte 19 Noroeste 0 -- -- 65
2019-06-13 22:00:00 19.6 11 Noroeste 26 Norte 0 -- -- 65
2019-06-13 21:00:00 19.7 15 Noroeste 28 Noroeste 0 -- -- 60
2019-06-13 20:00:00 21.7 14 Noroeste 33 Noroeste 0 -- -- 60
2019-06-13 19:00:00 21.4 21 Noroeste 39 Noroeste 0 -- -- 58
2019-06-13 18:00:00 20.3 21 Noroeste 39 Oeste 0 -- -- 59
2019-06-13 17:00:00 20.8 21 Noroeste 38 Norte 0 -- -- 57
2019-06-13 16:00:00 21 22 Noroeste 43 Noroeste 0 -- -- 58
2019-06-13 15:00:00 20.8 19 Noroeste 41 Noroeste 0 -- -- 57
2019-06-13 14:00:00 21.4 24 Noroeste 40 Noroeste 0 -- -- 58
2019-06-13 13:00:00 20.7 21 Noroeste 38 Noroeste 0 -- -- 57
2019-06-13 12:00:00 20.3 23 Noroeste 36 Noroeste 0 -- -- 61
2019-06-13 11:00:00 20.8 19 Norte 38 Noroeste 0 -- -- 58
2019-06-13 10:00:00 20.3 18 Noroeste 31 Noroeste 0 -- -- 59
2019-06-13 09:00:00 20.6 18 Noroeste 31 Norte 0 -- -- 62
2019-06-13 08:00:00 19.3 19 Noroeste 36 Noroeste 0 -- -- 62
2019-06-13 07:00:00 19 19 Noroeste 35 Noroeste 0 -- -- 63
2019-06-13 06:00:00 18.3 13 Noroeste 38 Noroeste 0 -- -- 70
2019-06-13 05:00:00 19.1 19 Noroeste 34 Noroeste 0 -- -- 67
2019-06-13 04:00:00 19 15 Noroeste 36 Noroeste 0 -- -- 68
2019-06-13 03:00:00 19.1 20 Noroeste 32 Noroeste 0 -- -- 64
2019-06-13 02:00:00 19.1 20 Noroeste 36 Noroeste 0 -- -- 63
2019-06-13 01:00:00 19.4 17 Noroeste 39 Noroeste 0 -- -- 67
2019-06-13 00:00:00 19.3 19 Noroeste 35 Noroeste 0 -- -- 64
2019-06-12 23:00:00 19.3 25 Noroeste 37 Noroeste 0 -- -- 68
2019-06-12 22:00:00 19.2 24 Noroeste 40 Noroeste 0 -- -- 69
2019-06-12 21:00:00 19.6 18 Noroeste 42 Noroeste 0 -- -- 67
2019-06-12 20:00:00 20.1 18 Norte 38 Norte 0 -- -- 67
2019-06-12 19:00:00 20 26 Noroeste 40 Noroeste 0 -- -- 70
2019-06-12 18:00:00 20.6 24 Norte 44 Noroeste 0 -- -- 68
2019-06-12 17:00:00 20.4 28 Noroeste 41 Noroeste 0 -- -- 69
2019-06-12 16:00:00 22 18 Noroeste 43 Noroeste 0 -- -- 61
2019-06-12 15:00:00 20.8 22 Noroeste 41 Noroeste 0 -- -- 62
2019-06-12 14:00:00 23.2 18 Noroeste 39 Noroeste 0 -- -- 63
2019-06-12 13:00:00 20.7 18 Noroeste 44 Noroeste 0 -- -- 64
2019-06-12 12:00:00 19.9 22 Noroeste 37 Noroeste 0 -- -- 69
2019-06-12 11:00:00 20.7 16 Norte 36 Norte 0 -- -- 68
2019-06-12 10:00:00 19.8 15 Noroeste 33 Noroeste 0.3 -- -- 76
2019-06-12 09:00:00 17.8 17 Norte 36 Noroeste 0.5 -- -- 91
2019-06-12 08:00:00 19.1 19 Noroeste 33 Noroeste 0 -- -- 80
2019-06-12 07:00:00 19.2 20 Noroeste 42 Noroeste 0 -- -- 80
2019-06-12 06:00:00 19.4 21 Noroeste 37 Norte 0.1 -- -- 76
2019-06-12 05:00:00 19.2 21 Noroeste 34 Noroeste 0 -- -- 76
2019-06-12 04:00:00 18.3 19 Noroeste 40 Noroeste 0.2 -- -- 85
2019-06-12 03:00:00 19 19 Noroeste 39 Noroeste 0.1 -- -- 84
2019-06-12 02:00:00 18.7 22 Noroeste 39 Noroeste 0 -- -- 80
2019-06-12 01:00:00 19.8 26 Noroeste 48 Noroeste 0 -- -- 73
2019-06-12 00:00:00 19.9 22 Noroeste 40 Noroeste 0 -- -- 74
2019-06-11 23:00:00 19.7 22 Noroeste 43 Noroeste 0 -- -- 78
2019-06-11 22:00:00 19.8 25 Noroeste -- -- -- -- -- 77
2019-06-11 21:00:00 20.2 20 Noroeste 39 Noroeste 0 -- -- 72
2019-06-11 20:00:00 20 24 Noroeste 40 Noroeste 0 -- -- 74
2019-06-11 19:00:00 20 30 Noroeste 46 Noroeste 0 -- -- 74
2019-06-11 18:00:00 20.5 23 Noroeste 41 Noroeste 0 -- -- 73
2019-06-11 17:00:00 20.3 28 Noroeste 46 Noroeste 0 -- -- 72
2019-06-11 16:00:00 21.2 24 Noroeste 41 Noroeste 0 -- -- 72
2019-06-11 15:00:00 20.5 20 Noroeste 34 Noroeste 0 -- -- 70
2019-06-11 14:00:00 20.7 21 Noroeste 36 Noroeste 0.1 -- -- 72
2019-06-11 13:00:00 20.5 18 Noroeste 36 Oeste 0 -- -- 69
2019-06-11 12:00:00 18.7 18 Norte 34 Oeste 0 -- -- 80
2019-06-11 11:00:00 20.8 20 Noroeste 33 Noroeste 0 -- -- 70
2019-06-11 10:00:00 20.9 17 Noroeste 36 Norte 0 -- -- 66
2019-06-11 09:00:00 19.3 18 Noroeste 38 Noroeste 0 -- -- 69
2019-06-11 08:00:00 19.2 21 Noroeste 35 Noroeste 0 -- -- 69
2019-06-11 07:00:00 19.1 21 Noroeste 36 Noroeste 0 -- -- 69
2019-06-11 06:00:00 19.1 19 Noroeste 37 Noroeste 0 -- -- 70
2019-06-11 05:00:00 19.2 16 Noroeste 35 Norte 0 -- -- 69
2019-06-11 04:00:00 19 28 Noroeste 42 Noroeste 0 -- -- 68
2019-06-11 03:00:00 19 19 Noroeste 40 Noroeste 0 -- -- 69
2019-06-11 02:00:00 19.1 22 Noroeste 36 Norte 0 -- -- 72
2019-06-11 01:00:00 19.3 20 Noroeste 40 Noroeste 0 -- -- 70
2019-06-11 00:00:00 19.3 21 Noroeste 40 Noroeste 0 -- -- 70
2019-06-10 23:00:00 19.5 21 Norte 37 Norte 0 -- -- 70
2019-06-10 22:00:00 19.8 17 Noroeste 36 Norte 0 -- -- 72
2019-06-10 21:00:00 19.8 22 Noroeste 38 Noroeste 0 -- -- 70
2019-06-10 20:00:00 20 19 Noroeste 40 Noroeste 0 -- -- 70
2019-06-10 19:00:00 20.5 20 Noroeste 43 Noroeste 0 -- -- 69
2019-06-10 18:00:00 20.8 23 Noroeste 40 Noroeste 0 -- -- 65
2019-06-10 17:00:00 21.1 25 Norte 39 Noroeste 0 -- -- 61
2019-06-10 16:00:00 22.1 21 Norte 44 Noroeste 0 -- -- 63
2019-06-10 15:00:00 20.2 26 Noroeste 44 Oeste 0 -- -- 67
2019-06-10 14:00:00 21 23 Noroeste 76 Norte 0 -- -- 67
2019-06-10 13:00:00 20.1 16 Noroeste 41 Noroeste 0 -- -- 68
2019-06-10 12:00:00 20.3 17 Noroeste 34 Noroeste 0 -- -- 67
2019-06-10 11:00:00 20.3 16 Norte 31 Norte 0 -- -- 66
2019-06-10 10:00:00 19.7 14 Noroeste 33 Norte 0 -- -- 64
2019-06-10 09:00:00 19.2 18 Norte 31 Norte 0 -- -- 65
2019-06-10 08:00:00 19.3 16 Norte 27 Norte 0 -- -- 68
2019-06-10 07:00:00 19.3 17 Norte 30 Norte 0 -- -- 67
2019-06-10 06:00:00 18.8 13 Noroeste 29 Norte 0 -- -- 68
2019-06-10 05:00:00 19.1 17 Norte 28 Norte 0 -- -- 67
2019-06-10 04:00:00 19 14 Noroeste 32 Norte 0 -- -- 67
2019-06-10 03:00:00 19.3 17 Noroeste 32 Norte 0 -- -- 65
2019-06-10 02:00:00 19.3 13 Norte 29 Norte 0 -- -- 67
2019-06-10 01:00:00 19.3 16 Norte 28 Norte 0 -- -- 65
2019-06-10 00:00:00 19.5 15 Norte 30 Norte 0 -- -- 65
2019-06-09 23:00:00 19.5 16 Norte 31 Norte 0 -- -- 67
2019-06-09 22:00:00 19.4 19 Norte 31 Norte 0 -- -- 67
2019-06-09 21:00:00 19.6 15 Norte 50 Noroeste 0 -- -- 63
2019-06-09 20:00:00 19.5 22 Norte 39 Noroeste 0 -- -- 62
2019-06-09 19:00:00 19.8 24 Norte 37 Nordeste 0 -- -- 62
2019-06-09 18:00:00 20.5 20 Norte 37 Norte 0 -- -- 59
2019-06-09 17:00:00 20.4 18 Norte 36 Norte 0 -- -- 59
2019-06-09 16:00:00 20.6 17 Norte 39 Norte 0 -- -- 56
2019-06-09 15:00:00 21.3 18 Norte 30 Norte 0 -- -- 56
2019-06-09 14:00:00 20.6 19 Norte 32 Norte 0 -- -- 55
2019-06-09 13:00:00 20.6 16 Norte 31 Norte 0 -- -- 56
2019-06-09 12:00:00 20.4 13 Norte 31 Norte 0 -- -- 57
2019-06-09 11:00:00 19.8 16 Norte 32 Nordeste 0 -- -- 61
2019-06-09 10:00:00 19.3 15 Norte 29 Norte 0 -- -- 65
2019-06-09 09:00:00 19.3 12 Norte 21 Norte 0 -- -- 63
2019-06-09 08:00:00 19.2 17 Norte 31 Norte 0 -- -- 58
2019-06-09 07:00:00 18.6 18 Norte 31 Norte 0 -- -- 69
2019-06-09 06:00:00 19.1 21 Norte 36 Norte 0 -- -- 59
2019-06-09 05:00:00 18.9 13 Norte 27 Nordeste 0 -- -- 65
2019-06-09 04:00:00 19.5 13 Norte 28 Noroeste 0 -- -- 63
2019-06-09 03:00:00 19 14 Noroeste 25 Norte 0 -- -- 65
2019-06-09 02:00:00 19.1 18 Norte 29 Norte 0 -- -- 63
2019-06-09 01:00:00 19.2 17 Norte 29 Noroeste 0 -- -- 64
2019-06-09 00:00:00 19.2 20 Norte 31 Norte 0 -- -- 65
2019-06-08 23:00:00 19.5 15 Norte 32 Noroeste 0 -- -- 64
2019-06-08 22:00:00 19.4 20 Norte 34 Norte 0 -- -- 65
2019-06-08 21:00:00 19.7 18 Norte 33 Norte 0 -- -- 63
2019-06-08 20:00:00 20 18 Norte 35 Noroeste 0 -- -- 65
2019-06-08 19:00:00 20 22 Noroeste 36 Noroeste 0 -- -- 67
2019-06-08 18:00:00 20.9 24 Noroeste 40 Noroeste 0 -- -- 65
2019-06-08 17:00:00 20.7 22 Noroeste 41 Noroeste 0 -- -- 64
2019-06-08 16:00:00 21.4 16 Noroeste 33 Noroeste 0 -- -- 61
2019-06-08 15:00:00 20.9 13 Norte 32 Nordeste 0 -- -- 69
2019-06-08 14:00:00 20.5 16 Norte 32 Nordeste 0 -- -- 72
2019-06-08 13:00:00 21.7 13 Norte 28 Norte 0 -- -- 74
2019-06-08 12:00:00 20.3 17 Norte 28 Norte 0 -- -- 73
2019-06-08 11:00:00 20.4 16 Norte 30 Norte 0 -- -- 73
2019-06-08 10:00:00 20.4 15 Norte 30 Norte 0 -- -- 74
2019-06-08 09:00:00 19.9 14 Norte 26 Nordeste 0 -- -- 81
2019-06-08 08:00:00 19.5 9 Norte 21 Norte 0 -- -- 81
2019-06-08 07:00:00 19.7 10 Norte 21 Norte 0 -- -- 80
2019-06-08 06:00:00 19.9 7 Norte 19 Nordeste 0 -- -- 80
2019-06-08 05:00:00 20 9 Norte 18 Norte 0 -- -- 80
2019-06-08 04:00:00 20 8 Norte 20 Noroeste 0 -- -- 83
2019-06-08 03:00:00 19.9 11 Noroeste 24 Noroeste 0 -- -- 81
2019-06-08 02:00:00 20 12 Norte 27 Oeste 0 -- -- 81
2019-06-08 01:00:00 20.3 15 Noroeste 36 Noroeste 0 -- -- 77
2019-06-08 00:00:00 20.2 12 Noroeste 32 Noroeste 0 -- -- 76
2019-06-07 23:00:00 20.1 17 Noroeste 32 Noroeste 0 -- -- 79
2019-06-07 22:00:00 20.1 19 Noroeste 32 Noroeste 0 -- -- 78
2019-06-07 21:00:00 20.3 15 Noroeste 26 Noroeste 0 -- -- 73
2019-06-07 20:00:00 20.9 16 Noroeste 27 Noroeste 0 -- -- 71
2019-06-07 19:00:00 22.9 14 Noroeste 31 Noroeste 0 -- -- 68
2019-06-07 18:00:00 20.8 15 Noroeste 28 Norte 0 -- -- 69
2019-06-07 17:00:00 21.4 10 Norte 30 Noroeste 0 -- -- 66
2019-06-07 16:00:00 22.8 14 Noroeste 31 Noroeste 0 -- -- 63
2019-06-07 15:00:00 21.7 13 Noroeste 28 Noroeste 0 -- -- 67
2019-06-07 14:00:00 22.4 9 Norte 21 Norte 0 -- -- 62
2019-06-07 13:00:00 20.7 16 Noroeste 26 Noroeste 0 -- -- 67
2019-06-07 12:00:00 21.2 11 Noroeste 27 Noroeste 0 -- -- 64
2019-06-07 11:00:00 19.6 15 Noroeste 29 Noroeste 0 -- -- 68
2019-06-07 10:00:00 20 11 Noroeste 28 Noroeste 0 -- -- 67
2019-06-07 09:00:00 19.2 17 Noroeste 31 Noroeste 0 -- -- 69
2019-06-07 08:00:00 19.7 19 Noroeste 31 Norte 0 -- -- 69
2019-06-07 07:00:00 18.8 17 Noroeste 33 Noroeste 0 -- -- 70
2019-06-07 06:00:00 18.9 19 Noroeste 33 Noroeste 0 -- -- 70
2019-06-07 05:00:00 18.9 18 Noroeste 36 Noroeste 0 -- -- 68
2019-06-07 04:00:00 18.9 15 Noroeste 32 Noroeste 0 -- -- 67
2019-06-07 03:00:00 19 15 Noroeste 33 Noroeste 0 -- -- 67
2019-06-07 02:00:00 19.1 21 Noroeste 36 Noroeste 0 -- -- 67
2019-06-07 01:00:00 19.1 19 Noroeste 34 Noroeste 0 -- -- 69
2019-06-07 00:00:00 19.2 16 Noroeste 35 Noroeste 0 -- -- 67
2019-06-06 23:00:00 19.2 15 Norte 32 Noroeste 0 -- -- 64
2019-06-06 22:00:00 20.5 17 Noroeste 35 Norte 0 -- -- 62
2019-06-06 21:00:00 20.3 21 Noroeste 37 Noroeste 0 -- -- 61
2019-06-06 20:00:00 20 15 Noroeste 39 Noroeste 0 -- -- 61
2019-06-06 19:00:00 20.2 21 Noroeste 38 Noroeste 0 -- -- 58
2019-06-06 18:00:00 20.6 19 Noroeste 36 Norte 0 -- -- 57
2019-06-06 17:00:00 20.7 15 Norte 36 Norte 0 -- -- 58
2019-06-06 16:00:00 19.9 19 Norte 38 Nordeste 0 -- -- 63
2019-06-06 15:00:00 20.4 19 Norte 37 Nordeste 0 -- -- 62
2019-06-06 14:00:00 20 19 Norte 36 Norte 0 -- -- 64
2019-06-06 13:00:00 21.3 23 Norte 38 Norte 0 -- -- 59
2019-06-06 12:00:00 20.9 18 Norte 31 Nordeste 0 -- -- 57
2019-06-06 11:00:00 19.5 19 Norte 31 Norte 0 -- -- 62
2019-06-06 10:00:00 19 14 Norte 24 Norte 0 -- -- 65
2019-06-06 09:00:00 19.8 12 Norte 27 Norte 0 -- -- 57
2019-06-06 08:00:00 19.5 14 Norte 34 Norte 0 -- -- 61
2019-06-06 07:00:00 19.1 15 Noroeste 24 Noroeste 0 -- -- 67
2019-06-06 06:00:00 19 13 Norte 31 Norte 0 -- -- 65
2019-06-06 05:00:00 19.1 14 Norte 27 Norte 0 -- -- 67
2019-06-06 04:00:00 19.3 14 Norte 29 Norte 0 -- -- 69
2019-06-06 03:00:00 19.3 15 Norte 30 Norte 0 -- -- 70
2019-06-06 02:00:00 19.4 15 Norte 31 Norte 0 -- -- 70
2019-06-06 01:00:00 19.6 17 Norte 34 Norte 0 -- -- 69
2019-06-06 00:00:00 19.6 15 Norte 29 Norte 0 -- -- 74
2019-06-05 23:00:00 19.9 15 Norte 29 Nordeste 0 -- -- 75
2019-06-05 22:00:00 19.9 17 Norte 38 Norte 0 -- -- 76
2019-06-05 21:00:00 20.1 19 Norte 32 Norte 0 -- -- 78
2019-06-05 20:00:00 20.4 19 Norte 36 Norte 0 -- -- 74
2019-06-05 19:00:00 21.1 17 Noroeste 46 Noroeste 0 -- -- 73
2019-06-05 18:00:00 21.2 25 Noroeste 42 Noroeste 0 -- -- 72
2019-06-05 17:00:00 21.2 19 Norte 53 Noroeste 0 -- -- 70
2019-06-05 16:00:00 21.1 19 Noroeste 36 Noroeste 0 -- -- 73
2019-06-05 15:00:00 21.2 19 Noroeste 31 Norte 0 -- -- 73
2019-06-05 14:00:00 20.9 21 Norte 33 Norte 0 -- -- 73
2019-06-05 13:00:00 22 15 Norte 30 Norte 0 -- -- 70
2019-06-05 12:00:00 21.5 20 Norte 33 Norte 0 -- -- 73
2019-06-05 11:00:00 21.6 17 Norte 33 Noroeste 0 -- -- 79
2019-06-05 10:00:00 21.3 12 Noroeste 27 Noroeste 0 -- -- 75
2019-06-05 09:00:00 21.2 15 Noroeste 28 Noroeste 0 -- -- 75
2019-06-05 08:00:00 20.1 15 Noroeste 28 Noroeste 0 -- -- 75
2019-06-05 07:00:00 19.9 17 Noroeste 28 Noroeste 0 -- -- 80
2019-06-05 06:00:00 19.9 15 Noroeste 35 Noroeste 0 -- -- 80
2019-06-05 05:00:00 19.9 17 Noroeste 36 Noroeste 0 -- -- 79
2019-06-05 04:00:00 20.1 19 Noroeste 40 Noroeste 0 -- -- 79
2019-06-05 03:00:00 20.3 17 Noroeste 35 Noroeste 0 -- -- 75
2019-06-05 02:00:00 20.2 19 Noroeste 36 Noroeste 0 -- -- 78
2019-06-05 01:00:00 20.1 22 Noroeste 36 Noroeste 0 -- -- 80
2019-06-05 00:00:00 20.1 23 Noroeste 42 Noroeste 0 -- -- 78
2019-06-04 23:00:00 20.3 21 Noroeste 39 Noroeste 0 -- -- 76
2019-06-04 22:00:00 20.2 20 Noroeste 39 Noroeste 0 -- -- 75
2019-06-04 21:00:00 20.1 24 Noroeste 39 Noroeste 0 -- -- 75
2019-06-04 20:00:00 20.4 28 Noroeste 45 Noroeste 0 -- -- 74
2019-06-04 19:00:00 20.6 29 Noroeste 44 Noroeste 0 -- -- 74
2019-06-04 18:00:00 20.7 26 Noroeste 41 Noroeste 0 -- -- 74
2019-06-04 17:00:00 21.2 21 Noroeste 40 Noroeste 0 -- -- 72
2019-06-04 16:00:00 23.3 21 Noroeste 40 Noroeste 0 -- -- 69
2019-06-04 15:00:00 21.7 24 Noroeste 38 Noroeste 0 -- -- 69
2019-06-04 14:00:00 22.2 24 Noroeste 35 Noroeste 0 -- -- 70
2019-06-04 13:00:00 22.1 19 Noroeste 34 Noroeste 0 -- -- 64
2019-06-04 12:00:00 23.6 17 Noroeste 36 Noroeste 0 -- -- 56
2019-06-04 11:00:00 23.2 15 Noroeste 31 Noroeste 0 -- -- 54
2019-06-04 10:00:00 23.9 16 Noroeste 34 Noroeste 0 -- -- 53
2019-06-04 09:00:00 22.4 16 Noroeste 35 Noroeste 0 -- -- 57
2019-06-04 08:00:00 21.5 23 Noroeste 40 Oeste 0 -- -- 61
2019-06-04 07:00:00 20.7 22 Noroeste 34 Oeste 0 -- -- 66
2019-06-04 06:00:00 19.5 19 Oeste 39 Noroeste 0 -- -- 84
2019-06-04 05:00:00 19.5 26 Noroeste 42 Noroeste 0 -- -- 84
2019-06-04 04:00:00 19.7 23 Noroeste 42 Noroeste 0 -- -- 83
2019-06-04 03:00:00 20 24 Noroeste 40 Noroeste 0 -- -- 80
2019-06-04 02:00:00 20 24 Noroeste 35 Noroeste 0 -- -- 80
2019-06-04 01:00:00 20.3 20 Noroeste 35 Noroeste 0 -- -- 79
2019-06-04 00:00:00 20.5 24 Noroeste 41 Noroeste 0 -- -- 78
2019-06-03 23:00:00 20.7 20 Noroeste 46 Noroeste 0 -- -- 78
2019-06-03 22:00:00 20.5 32 Noroeste 46 Noroeste 0 -- -- 80
2019-06-03 21:00:00 20.7 26 Noroeste 47 Oeste 0 -- -- 79
2019-06-03 20:00:00 22.5 26 Noroeste 43 Noroeste 0 -- -- 74
2019-06-03 19:00:00 22.9 24 Noroeste 41 Noroeste 0 -- -- 69
2019-06-03 18:00:00 23.1 26 Noroeste 42 Noroeste 0 -- -- 69
2019-06-03 17:00:00 22.6 28 Noroeste 42 Noroeste 0 -- -- 72
2019-06-03 16:00:00 22.2 26 Noroeste 45 Noroeste 0 -- -- 74
2019-06-03 15:00:00 22.7 22 Noroeste 36 Noroeste 0 -- -- 68
2019-06-03 14:00:00 22.3 25 Noroeste 37 Noroeste 0 -- -- 67
2019-06-03 13:00:00 22.9 22 Noroeste 36 Noroeste 0 -- -- 64
2019-06-03 12:00:00 23.1 21 Noroeste 36 Noroeste 0 -- -- 62
2019-06-03 11:00:00 23.5 17 Noroeste 47 Oeste 0 -- -- 62
2019-06-03 10:00:00 22.2 20 Noroeste 34 Noroeste 0 -- -- 68
2019-06-03 09:00:00 23.4 18 Noroeste 29 Oeste 0 -- -- 53
2019-06-03 08:00:00 23.9 22 Noroeste 32 Noroeste 0 -- -- 42
2019-06-03 07:00:00 23.3 20 Oeste 46 Oeste 0 -- -- 47
2019-06-03 06:00:00 21.6 27 Noroeste 42 Noroeste 0 -- -- 59
2019-06-03 05:00:00 22.1 16 Noroeste 31 Noroeste 0 -- -- 59
2019-06-03 04:00:00 21.6 14 Noroeste 36 Oeste 0 -- -- 64
2019-06-03 03:00:00 20.8 19 Noroeste 37 Oeste 0 -- -- 75
2019-06-03 02:00:00 20.8 25 Noroeste 41 Noroeste 0 -- -- 77
2019-06-03 01:00:00 20.9 24 Noroeste 40 Oeste 0 -- -- 77
2019-06-03 00:00:00 22.3 23 Noroeste 37 Noroeste 0 -- -- 62
2019-06-02 23:00:00 23.2 26 Noroeste 40 Oeste 0 -- -- 56
2019-06-02 22:00:00 21.6 28 Noroeste 45 Noroeste 0 -- -- 69
2019-06-02 21:00:00 21.6 21 Noroeste 51 Noroeste 0 -- -- 70
2019-06-02 20:00:00 24.2 19 Noroeste 38 Noroeste 0 -- -- 58
2019-06-02 19:00:00 22.2 22 Noroeste 42 Noroeste 0 -- -- 70
2019-06-02 18:00:00 23.2 19 Noroeste 39 Noroeste 0 -- -- 66
2019-06-02 17:00:00 21.2 24 Noroeste 45 Noroeste 0 -- -- 75
2019-06-02 16:00:00 21.3 31 Noroeste 93 Noroeste 0 -- -- 77
2019-06-02 15:00:00 21.3 26 Noroeste 37 Noroeste 0 -- -- 77
2019-06-02 14:00:00 22.1 20 Noroeste 34 Noroeste 0 -- -- 75
2019-06-02 13:00:00 22 17 Noroeste 32 Noroeste 0 -- -- 73
2019-06-02 12:00:00 21.2 21 Noroeste 33 Noroeste 0 -- -- 78
2019-06-02 11:00:00 19.8 27 Noroeste 45 Noroeste 0 -- -- 83
2019-06-02 10:00:00 19.5 28 Noroeste 45 Noroeste 0 -- -- 84
2019-06-02 09:00:00 18.7 24 Noroeste 40 Noroeste 0 -- -- 89
2019-06-02 08:00:00 18.9 19 Noroeste 36 Noroeste 0 -- -- 90
2019-06-02 07:00:00 19 17 Noroeste 43 Noroeste 0 -- -- 84
2019-06-02 06:00:00 19.6 17 Noroeste 33 Oeste 0 -- -- 81
2019-06-02 05:00:00 19.5 15 Noroeste 31 Noroeste 0 -- -- 81
2019-06-02 04:00:00 19.4 14 Oeste 42 Noroeste 0 -- -- 81
2019-06-02 03:00:00 19.3 17 Noroeste 28 Noroeste 0 -- -- 83
2019-06-02 02:00:00 19.5 15 Noroeste 27 Noroeste 0 -- -- 81
2019-06-02 01:00:00 19.7 20 Noroeste 30 Noroeste 0 -- -- 80
2019-06-02 00:00:00 19.9 15 Noroeste 28 Noroeste 0 -- -- 79
2019-06-01 23:00:00 19.9 15 Noroeste 39 Oeste 0 -- -- 78
2019-06-01 22:00:00 19.9 23 Noroeste 40 Noroeste 0 -- -- 78
2019-06-01 21:00:00 19.9 23 Noroeste 39 Noroeste 0 -- -- 77
2019-06-01 20:00:00 20.2 21 Noroeste 40 Noroeste 0 -- -- 78
2019-06-01 19:00:00 20.3 24 Noroeste 42 Noroeste 0 -- -- 77
2019-06-01 18:00:00 20.8 26 Noroeste 46 Noroeste 0 -- -- 77
2019-06-01 17:00:00 21.1 28 Noroeste 50 Noroeste 0 -- -- 74
2019-06-01 16:00:00 20.6 27 Noroeste 40 Noroeste 0 -- -- 74
2019-06-01 15:00:00 22 22 Noroeste 41 Noroeste 0 -- -- 71
2019-06-01 14:00:00 21.5 17 Noroeste 35 Norte 0 -- -- 72
2019-06-01 13:00:00 20.4 19 Norte 29 Norte 0 -- -- 76
2019-06-01 12:00:00 20 18 Noroeste 28 Noroeste 0 -- -- 77
2019-06-01 11:00:00 20.2 14 Noroeste 26 Noroeste 0 -- -- 78
2019-06-01 10:00:00 19.6 15 Noroeste 29 Norte 0 -- -- 79
2019-06-01 09:00:00 19.4 19 Noroeste 35 Noroeste 0 -- -- 80
2019-06-01 08:00:00 19.1 23 Noroeste 41 Noroeste 0 -- -- 79
2019-06-01 07:00:00 18.9 28 Noroeste 42 Noroeste 0 -- -- 79
2019-06-01 06:00:00 18.9 21 Noroeste 41 Norte 0 -- -- 79
2019-06-01 05:00:00 18.8 23 Noroeste 40 Noroeste 0 -- -- 79
2019-06-01 04:00:00 18.9 22 Noroeste 43 Noroeste 0 -- -- 79
2019-06-01 03:00:00 19 20 Noroeste 29 Oeste 0 -- -- 79
2019-06-01 02:00:00 19.2 15 Noroeste 27 Norte 0 -- -- 78
2019-06-01 01:00:00 19.4 16 Noroeste 37 Noroeste 0 -- -- 78
2019-06-01 00:00:00 19.5 23 Noroeste 39 Noroeste 0 -- -- 78
2019-05-31 23:00:00 19.6 27 Noroeste 44 Noroeste 0 -- -- 77
2019-05-31 22:00:00 19.7 26 Noroeste 47 Noroeste 0 -- -- 78
2019-05-31 21:00:00 19.8 26 Noroeste 52 Noroeste 0 -- -- 78
2019-05-31 20:00:00 19.8 33 Noroeste 54 Noroeste 0 -- -- 76
2019-05-31 19:00:00 20.1 37 Noroeste 57 Noroeste 0 -- -- 75
2019-05-31 18:00:00 20.4 30 Noroeste 55 Noroeste 0 -- -- 73
2019-05-31 17:00:00 20.7 31 Noroeste 53 Noroeste 0 -- -- 73
2019-05-31 16:00:00 20.6 28 Noroeste -- -- -- -- -- 72
2019-05-31 15:00:00 21.4 30 Noroeste 51 Noroeste 0 -- -- 71
2019-05-31 14:00:00 20.9 26 Noroeste 50 Noroeste 0 -- -- 71
2019-05-31 13:00:00 20.6 27 Noroeste 48 Noroeste 0 -- -- 74
2019-05-31 12:00:00 19.9 34 Noroeste 51 Noroeste 0 -- -- 74
2019-05-31 11:00:00 20.8 36 Noroeste 56 Noroeste 0 -- -- 74
2019-05-31 10:00:00 19.5 31 Noroeste 50 Noroeste 0 -- -- 74
2019-05-31 09:00:00 19.4 19 Noroeste 34 Noroeste 0 -- -- 75
2019-05-31 08:00:00 18.9 20 Noroeste 35 Noroeste 0 -- -- 75
2019-05-31 07:00:00 18.7 24 Noroeste 45 Noroeste 0 -- -- 75
2019-05-31 06:00:00 18.7 26 Noroeste 42 Noroeste 0 -- -- 75
2019-05-31 05:00:00 18.7 23 Noroeste 42 Noroeste 0 -- -- 75
2019-05-31 04:00:00 18.9 25 Noroeste 42 Noroeste 0 -- -- 75
2019-05-31 03:00:00 19.1 23 Noroeste 42 Noroeste 0 -- -- 74
2019-05-31 02:00:00 19.5 22 Noroeste 42 Oeste 0 -- -- 74
2019-05-31 01:00:00 19.3 23 Noroeste 44 Noroeste 0 -- -- 74
2019-05-31 00:00:00 19.6 26 Noroeste 49 Noroeste 0 -- -- 74
2019-05-30 23:00:00 19.2 23 Noroeste 55 Noroeste 0 -- -- 74
2019-05-30 22:00:00 19.3 29 Noroeste 55 Noroeste 0 -- -- 74
2019-05-30 21:00:00 19.2 30 Noroeste 51 Noroeste 0 -- -- 73
2019-05-30 20:00:00 19.5 33 Noroeste 53 Noroeste 0 -- -- 72
2019-05-30 19:00:00 20 27 Noroeste 49 Noroeste 0 -- -- 70
2019-05-30 18:00:00 20.4 28 Noroeste 54 Noroeste 0 -- -- 70
2019-05-30 17:00:00 20.4 21 Noroeste 62 Noroeste 0 -- -- 68
2019-05-30 16:00:00 20.8 28 Noroeste 57 Noroeste 0 -- -- 69
2019-05-30 15:00:00 20.3 24 Noroeste 50 Noroeste 0 -- -- 68
2019-05-30 14:00:00 20 25 Noroeste 53 Noroeste 0 -- -- 70
2019-05-30 13:00:00 19.5 26 Noroeste 45 Noroeste 0 -- -- 70
2019-05-30 12:00:00 19.5 28 Noroeste 42 Noroeste 0 -- -- 70
2019-05-30 11:00:00 20 23 Noroeste 46 Noroeste 0 -- -- 70
2019-05-30 10:00:00 19.3 23 Noroeste 40 Noroeste 0 -- -- 72
2019-05-30 09:00:00 18.6 23 Noroeste 40 Noroeste 0 -- -- 73
2019-05-30 08:00:00 18.2 21 Noroeste 37 Noroeste 0 -- -- 74
2019-05-30 07:00:00 18.2 20 Noroeste 40 Noroeste 0 -- -- 74
2019-05-30 06:00:00 18.3 23 Noroeste 40 Noroeste 0 -- -- 73
2019-05-30 05:00:00 18.4 21 Noroeste 33 Norte 0 -- -- 73
2019-05-30 04:00:00 18.6 20 Noroeste 37 Noroeste 0 -- -- 73
2019-05-30 03:00:00 18.6 23 Noroeste 37 Noroeste 0 -- -- 73
2019-05-30 02:00:00 18.7 22 Noroeste 36 Noroeste 0 -- -- 73
2019-05-30 01:00:00 18.8 21 Noroeste 40 Noroeste 0 -- -- 73
2019-05-30 00:00:00 18.9 25 Noroeste 43 Noroeste 0 -- -- 73
2019-05-29 23:00:00 19.1 19 Noroeste 41 Noroeste 0 -- -- 73
2019-05-29 22:00:00 19 25 Noroeste 44 Noroeste 0 -- -- 73
2019-05-29 21:00:00 19.2 29 Noroeste 47 Noroeste 0 -- -- 73
2019-05-29 20:00:00 19.3 27 Noroeste 53 Noroeste 0 -- -- 72
2019-05-29 19:00:00 19.4 33 Noroeste 47 Noroeste 0 -- -- 72
2019-05-29 18:00:00 21.1 24 Noroeste 48 Noroeste 0 -- -- 68
2019-05-29 17:00:00 20.7 24 Noroeste 46 Noroeste 0 -- -- 68
2019-05-29 16:00:00 20.2 23 Noroeste 48 Noroeste 0 -- -- 68
2019-05-29 15:00:00 20.5 22 Noroeste 40 Noroeste 0 -- -- 67
2019-05-29 14:00:00 19.8 29 Noroeste 46 Noroeste 0 -- -- 69
2019-05-29 13:00:00 19.4 25 Noroeste 44 Noroeste 0 -- -- 69
2019-05-29 12:00:00 19 24 Noroeste 45 Noroeste 0 -- -- 69
2019-05-29 11:00:00 18.6 24 Noroeste 41 Noroeste 0 -- -- 70
2019-05-29 10:00:00 18.9 20 Norte 37 Norte 0 -- -- 72
2019-05-29 09:00:00 18.1 23 Noroeste 40 Noroeste 0 -- -- 73
2019-05-29 08:00:00 18.3 23 Noroeste 37 Noroeste 0 -- -- 74
2019-05-29 07:00:00 18.5 21 Noroeste 45 Noroeste 0 -- -- 75
2019-05-29 06:00:00 18.7 22 Noroeste 38 Noroeste 0 -- -- 74
2019-05-29 05:00:00 18.5 21 Noroeste 37 Noroeste 0 -- -- 75
2019-05-29 04:00:00 18.7 22 Noroeste 37 Noroeste 0 -- -- 74
2019-05-29 03:00:00 18.7 17 Noroeste 35 Noroeste 0 -- -- 74
2019-05-29 02:00:00 19 16 Noroeste 37 Noroeste 0 -- -- 74
2019-05-29 01:00:00 19.1 14 Norte 37 Norte 0 -- -- 73
2019-05-29 00:00:00 19.3 19 Noroeste 33 Noroeste 0 -- -- 73
2019-05-28 23:00:00 19.5 18 Noroeste 34 Noroeste 0 -- -- 73
2019-05-28 22:00:00 19.9 19 Noroeste 36 Norte 0 -- -- 73
2019-05-28 21:00:00 19.6 22 Noroeste 33 Norte 0 -- -- 78
2019-05-28 20:00:00 20.3 18 Noroeste 34 Noroeste 0 -- -- 75
2019-05-28 19:00:00 20.2 23 Norte 38 Norte 0 -- -- 72
2019-05-28 18:00:00 20.7 18 Noroeste 38 Noroeste 0 -- -- 73
2019-05-28 17:00:00 20.7 19 Noroeste 41 Noroeste 0 -- -- 70
2019-05-28 16:00:00 20.9 19 Noroeste 37 Noroeste 0 -- -- 70
2019-05-28 15:00:00 21.9 19 Noroeste 43 Noroeste 0 -- -- 68
2019-05-28 14:00:00 20.3 23 Noroeste 41 Noroeste 0 -- -- 69
2019-05-28 13:00:00 -- 23 Norte 37 Noroeste 0 -- -- --
2019-05-28 12:00:00 -- 22 Noroeste 37 Oeste 0 -- -- --
2019-05-28 11:00:00 20.2 20 Noroeste 35 Norte 0 -- -- 72
2019-05-28 10:00:00 19.9 21 Noroeste 34 Noroeste 0 -- -- 74
2019-05-28 09:00:00 19.1 23 Noroeste 35 Noroeste 0 -- -- 76
2019-05-28 08:00:00 19.2 18 Noroeste 35 Noroeste 0 -- -- 78
2019-05-28 07:00:00 19.3 21 Noroeste 34 Noroeste 0 -- -- 78
2019-05-28 06:00:00 19.3 18 Noroeste 34 Noroeste 0 -- -- 79
2019-05-28 05:00:00 19.1 18 Noroeste 36 Noroeste 0 -- -- 79
2019-05-28 04:00:00 19.2 21 Noroeste 36 Noroeste 0 -- -- 78
2019-05-28 03:00:00 19.2 24 Noroeste 36 Noroeste 0 -- -- 79
2019-05-28 02:00:00 19 22 Noroeste 38 Noroeste 0 -- -- 80
2019-05-28 01:00:00 19.3 22 Noroeste 35 Noroeste 0 -- -- 78
2019-05-28 00:00:00 19.5 19 Noroeste 34 Noroeste 0 -- -- 77
2019-05-27 23:00:00 19.7 20 Noroeste 36 Noroeste 0 -- -- 75
2019-05-27 22:00:00 19.8 20 Noroeste 38 Noroeste 0 -- -- 78
2019-05-27 21:00:00 20.8 18 Noroeste 41 Noroeste 0 -- -- 77
2019-05-27 20:00:00 20.1 24 Noroeste 43 Noroeste 0 -- -- 77
2019-05-27 19:00:00 20.4 26 Noroeste 43 Noroeste 0 -- -- 74
2019-05-27 18:00:00 22 25 Noroeste 44 Noroeste 0 -- -- 74
2019-05-27 17:00:00 21.6 21 Noroeste 42 Noroeste 0 -- -- 72
2019-05-27 16:00:00 21 24 Noroeste 45 Noroeste 0 -- -- 70
2019-05-27 15:00:00 21.3 27 Noroeste 46 Noroeste 0 -- -- 69
2019-05-27 14:00:00 22.3 28 Noroeste 46 Noroeste 0 -- -- 68
2019-05-27 13:00:00 21.3 23 Noroeste 51 Noroeste 0 -- -- 68
2019-05-27 12:00:00 20.8 26 Noroeste 49 Noroeste 0 -- -- 72
2019-05-27 11:00:00 20.4 26 Noroeste 43 Noroeste 0 -- -- 74
2019-05-27 10:00:00 19.8 19 Noroeste 37 Noroeste 0 -- -- 75
2019-05-27 09:00:00 19 23 Noroeste 41 Noroeste 0 -- -- 78
2019-05-27 08:00:00 19 14 Noroeste 33 Noroeste 0 -- -- 79
2019-05-27 07:00:00 18.7 16 Noroeste 32 Noroeste 0 -- -- 79
2019-05-27 06:00:00 18.6 21 Noroeste 45 Oeste 0 -- -- 79
2019-05-27 05:00:00 18.7 14 Noroeste 36 Noroeste 0 -- -- 78
2019-05-27 04:00:00 18.8 25 Noroeste 34 Noroeste 0 -- -- 79
2019-05-27 03:00:00 18.8 22 Noroeste 34 Noroeste 0 -- -- 78
2019-05-27 02:00:00 18.9 19 Noroeste 34 Noroeste 0 -- -- 79
2019-05-27 01:00:00 19.2 22 Noroeste 39 Noroeste 0 -- -- 79
2019-05-27 00:00:00 19.4 22 Noroeste 44 Noroeste 0 -- -- 79
2019-05-26 23:00:00 19.4 26 Noroeste 42 Noroeste 0 -- -- 78
2019-05-26 22:00:00 19.4 26 Noroeste 40 Noroeste 0 -- -- 79
2019-05-26 21:00:00 19.4 25 Noroeste 44 Noroeste 0 -- -- 76
2019-05-26 20:00:00 19.8 24 Noroeste 41 Noroeste 0 -- -- 75
2019-05-26 19:00:00 19.8 26 Noroeste 40 Noroeste 0 -- -- 73
2019-05-26 18:00:00 21.1 19 Noroeste 42 Noroeste 0 -- -- 69
2019-05-26 17:00:00 20 23 Norte 37 Norte 0 -- -- 72
2019-05-26 16:00:00 20.5 23 Norte 40 Noroeste 0 -- -- 69
2019-05-26 15:00:00 20.5 29 Norte 38 Norte 0 -- -- 69
2019-05-26 14:00:00 22.2 28 Noroeste 40 Noroeste 0 -- -- 68
2019-05-26 13:00:00 20.7 22 Noroeste 36 Noroeste 0 -- -- 68
2019-05-26 12:00:00 20.7 23 Noroeste 39 Noroeste 0 -- -- 72
2019-05-26 11:00:00 19.9 23 Noroeste 40 Noroeste 0 -- -- 72
2019-05-26 10:00:00 19.9 21 Noroeste -- -- -- -- -- 69
2019-05-26 09:00:00 19.1 23 Noroeste 43 Noroeste 0 -- -- 74
2019-05-26 08:00:00 18.7 21 Noroeste 41 Noroeste 0 -- -- 74
2019-05-26 07:00:00 18.6 20 Noroeste 33 Norte 0 -- -- 73
2019-05-26 06:00:00 18.8 20 Noroeste 35 Noroeste 0 -- -- 74
2019-05-26 05:00:00 18.9 22 Noroeste 38 Noroeste 0 -- -- 73
2019-05-26 04:00:00 19.1 17 Noroeste 35 Noroeste 0 -- -- 72
2019-05-26 03:00:00 19 22 Noroeste 38 Noroeste 0 -- -- 69
2019-05-26 02:00:00 18.9 22 Noroeste 35 Norte 0 -- -- 68
2019-05-26 01:00:00 19.2 19 Noroeste 41 Noroeste 0 -- -- 68
2019-05-26 00:00:00 19.3 24 Norte 44 Noroeste 0 -- -- 70
2019-05-25 23:00:00 19.2 21 Noroeste 39 Noroeste 0 -- -- 72
2019-05-25 22:00:00 19.2 22 Noroeste 42 Oeste 0 -- -- 73
2019-05-25 21:00:00 19.3 20 Noroeste 42 Noroeste 0 -- -- 73
2019-05-25 20:00:00 19.6 21 Noroeste 43 Noroeste 0 -- -- 73
2019-05-25 19:00:00 20 22 Noroeste 39 Norte 0 -- -- 73
2019-05-25 18:00:00 20.4 21 Noroeste 41 Noroeste 0 -- -- 72
2019-05-25 17:00:00 21.7 21 Noroeste 42 Noroeste 0 -- -- 67
2019-05-25 16:00:00 20.9 18 Noroeste 39 Noroeste 0 -- -- 64
2019-05-25 15:00:00 20.4 17 Norte 33 Norte 0 -- -- 72
2019-05-25 14:00:00 18.8 21 Norte 35 Norte 0 -- -- 79
2019-05-25 13:00:00 19.2 21 Noroeste 36 Noroeste 0 -- -- 78
2019-05-25 12:00:00 20.4 21 Norte 34 Noroeste 0 -- -- 76
2019-05-25 11:00:00 19.7 13 Noroeste 31 Noroeste 0 -- -- 75
2019-05-25 10:00:00 18.6 18 Norte 32 Noroeste 0 -- -- 80
2019-05-25 09:00:00 18.6 21 Noroeste 35 Norte 0 -- -- 78
2019-05-25 08:00:00 18.1 12 Noroeste 32 Noroeste 0 -- -- 84
2019-05-25 07:00:00 17.6 18 Norte 31 Noroeste 0 -- -- 84
2019-05-25 06:00:00 18.1 17 Noroeste 28 Noroeste 0 -- -- 81
2019-05-25 05:00:00 17.7 18 Noroeste 35 Norte 0 -- -- 83
2019-05-25 04:00:00 18.8 19 Noroeste -- -- -- -- -- 76
2019-05-25 03:00:00 18.9 14 Noroeste 31 Noroeste 0 -- -- 76
2019-05-25 02:00:00 18.7 16 Noroeste 30 Noroeste 0 -- -- 75
2019-05-25 01:00:00 18.9 18 Noroeste 31 Norte 0 -- -- 75
2019-05-25 00:00:00 20 14 Noroeste 32 Noroeste 0 -- -- 72
2019-05-24 23:00:00 19.5 17 Noroeste 36 Noroeste 0 -- -- 75
2019-05-24 22:00:00 19.3 19 Noroeste 35 Noroeste 0 -- -- 76
2019-05-24 21:00:00 19.9 23 Noroeste 42 Oeste 0 -- -- 75
2019-05-24 20:00:00 19.6 21 Noroeste 42 Noroeste 0 -- -- 77
2019-05-24 19:00:00 20 28 Noroeste 43 Noroeste 0 -- -- 75
2019-05-24 18:00:00 20.7 24 Noroeste 47 Noroeste 0 -- -- 73
2019-05-24 17:00:00 20.4 24 Noroeste 45 Noroeste 0 -- -- 73
2019-05-24 16:00:00 20.6 24 Noroeste 41 Oeste 0 -- -- 72
2019-05-24 15:00:00 20.6 28 Noroeste 41 Noroeste 0 -- -- 73
2019-05-24 14:00:00 20.5 23 Noroeste 42 Noroeste 0 -- -- 73
2019-05-24 13:00:00 20.2 23 Noroeste 40 Noroeste 0 -- -- 73
2019-05-24 12:00:00 -- 24 Noroeste 45 Noroeste 0 -- -- --
2019-05-24 11:00:00 19.8 21 Noroeste 41 Noroeste 0 -- -- 73
2019-05-24 10:00:00 19.1 24 Noroeste 39 Noroeste 0 -- -- 75
2019-05-24 09:00:00 19.1 29 Noroeste 44 Noroeste 0 -- -- 77
2019-05-24 08:00:00 19.2 23 Noroeste 44 Noroeste 0 -- -- 78
2019-05-24 07:00:00 18.6 30 Noroeste 45 Noroeste 0 -- -- 76
2019-05-24 06:00:00 18.6 20 Noroeste 36 Noroeste 0 -- -- 75
2019-05-24 05:00:00 18.5 23 Noroeste 42 Noroeste 0 -- -- 75
2019-05-24 04:00:00 18.6 27 Noroeste 40 Noroeste 0 -- -- 75
2019-05-24 03:00:00 18.5 19 Noroeste 39 Noroeste 0 -- -- 76
2019-05-24 02:00:00 18.6 26 Noroeste 45 Noroeste 0 -- -- 75
2019-05-24 01:00:00 18.7 30 Noroeste 44 Noroeste 0 -- -- 74
2019-05-24 00:00:00 18.9 21 Noroeste 35 Noroeste 0 -- -- 73
2019-05-23 23:00:00 19.3 21 Noroeste 39 Noroeste 0 -- -- 73
2019-05-23 22:00:00 20 23 Norte 43 Noroeste 0 -- -- 70
2019-05-23 21:00:00 19.4 22 Noroeste 46 Noroeste 0 -- -- 73
2019-05-23 20:00:00 19.7 24 Noroeste 47 Noroeste 0 -- -- 72
2019-05-23 19:00:00 19.9 24 Noroeste 43 Oeste 0 -- -- 72
2019-05-23 18:00:00 20.3 21 Noroeste 50 Noroeste 0 -- -- 67
2019-05-23 17:00:00 22.4 27 Noroeste 48 Noroeste 0 -- -- 67
2019-05-23 16:00:00 21.7 23 Noroeste 43 Noroeste 0 -- -- 64
2019-05-23 15:00:00 21.6 17 Norte 40 Noroeste 0 -- -- 68
2019-05-23 14:00:00 20.7 26 Norte 44 Norte 0 -- -- 67
2019-05-23 13:00:00 20.1 23 Noroeste 41 Noroeste 0 -- -- 70
2019-05-23 12:00:00 20.1 19 Noroeste 35 Noroeste 0 -- -- 72
2019-05-23 11:00:00 19.6 27 Norte 42 Norte 0 -- -- 69
2019-05-23 10:00:00 20.9 23 Norte 40 Noroeste 0 -- -- 66
2019-05-23 09:00:00 19.3 23 Noroeste 36 Norte 0 -- -- 65
2019-05-23 08:00:00 19.1 20 Norte 34 Noroeste 0 -- -- 70
2019-05-23 07:00:00 19.3 19 Noroeste 33 Noroeste 0 -- -- 70
2019-05-23 06:00:00 19.3 24 Noroeste 39 Noroeste 0 -- -- 66
2019-05-23 05:00:00 19.3 20 Noroeste 41 Noroeste 0 -- -- 67
2019-05-23 04:00:00 19.1 17 Noroeste 41 Noroeste 0 -- -- 70
2019-05-23 03:00:00 19.1 22 Noroeste 40 Noroeste 0 -- -- 75
2019-05-23 02:00:00 19.4 19 Noroeste 37 Noroeste 0 -- -- 70
2019-05-23 01:00:00 19.4 24 Norte 40 Noroeste 0 -- -- 70
2019-05-23 00:00:00 19.3 22 Noroeste 38 Noroeste 0 -- -- 76
2019-05-22 23:00:00 19.2 20 Noroeste 32 Noroeste 0 -- -- 76
2019-05-22 22:00:00 19.3 21 Noroeste 42 Noroeste 0 -- -- 78
2019-05-22 21:00:00 20.1 22 Noroeste 39 Noroeste 0 -- -- 77
2019-05-22 20:00:00 19.7 27 Noroeste 47 Noroeste 0 -- -- 75
2019-05-22 19:00:00 19.3 22 Noroeste 41 Noroeste 0 -- -- 80
2019-05-22 18:00:00 19.5 26 Noroeste 41 Norte 0 -- -- 79
2019-05-22 17:00:00 20.7 23 Noroeste 77 Noroeste 0 -- -- 72
2019-05-22 16:00:00 20.3 21 Noroeste 43 Noroeste 0 -- -- 72
2019-05-22 15:00:00 20.1 26 Noroeste 41 Noroeste 0 -- -- 72
2019-05-22 14:00:00 19.8 23 Noroeste 37 Noroeste 0 -- -- 68
2019-05-22 13:00:00 20.2 19 Noroeste 37 Noroeste 0 -- -- 69
2019-05-22 12:00:00 19.8 18 Noroeste 35 Norte 0 -- -- 68
2019-05-22 11:00:00 19.4 17 Noroeste 33 Norte 0 -- -- 73
2019-05-22 10:00:00 19.6 14 Noroeste 35 Noroeste 0 -- -- 72
2019-05-22 09:00:00 19 19 Noroeste 33 Noroeste 0 -- -- 72
2019-05-22 08:00:00 19.2 14 Noroeste 32 Noroeste 0 -- -- 75
2019-05-22 07:00:00 19.9 17 Norte 29 Norte 0 -- -- 76
2019-05-22 06:00:00 18.8 18 Norte 33 Norte 0 -- -- 78
2019-05-22 05:00:00 19.1 18 Noroeste 33 Noroeste 0 -- -- 74
2019-05-22 04:00:00 19.1 18 Noroeste 37 Noroeste 0 -- -- 76
2019-05-22 03:00:00 19.1 19 Noroeste 36 Noroeste 0 -- -- 75
2019-05-22 02:00:00 19.2 19 Noroeste 31 Noroeste 0 -- -- 74
2019-05-22 01:00:00 19.2 16 Noroeste 34 Norte 0 -- -- 73
2019-05-22 00:00:00 19.4 13 Noroeste 29 Noroeste 0 -- -- 73